Weather History for K1H2 - January, 2014

Change the Weather History Date:

Wednesday, January 29, 2014

  Actual Average (KMTO) Record (KMTO)
Temperature  
Mean Temperature 18 °F 28 °F  
Max Temperature 30 °F 35 °F 63 °F (1975)
Min Temperature 6 °F 20 °F -11 °F (1966)
Degree Days  
Heating Degree Days 47 37  
Month to date heating degree days 1098  
Since 1 July heating degree days 3201  
Cooling Degree Days 0 0  
Month to date cooling degree days 0  
Year to date cooling degree days 0  
Moisture  
Dew Point -1 °F    
Average Humidity 44    
Maximum Humidity 63    
Minimum Humidity 26    
Precipitation  
Precipitation 0.00 in 0.06 in 1.74 in (2013)
Month to date precipitation 2.09  
Year to date precipitation 2.09  
Sea Level Pressure  
Sea Level Pressure 30.29 in    
Wind  
Wind Speed 7 mph (SSW)    
Max Wind Speed 17 mph    
Max Gust Speed 24 mph    
Visibility 10 miles    
Events      
T = Trace of Precipitation, MM = Missing Value Source: NWS Daily Summary

Daily Weather History Graph

Daily Weather History Graph

Search for Another Location

Airport or City:

Trip Planner

Search our weather history database for the weather conditions in past years. The results will help you decide how hot, cold, wet, or windy it might be!

Date:

Astronomy

Jan. 29, 2014 Rise Set
Actual Time 7:03 AM CST 5:11 PM CST
Civil Twilight 6:34 AM CST 5:40 PM CST
Nautical Twilight 6:02 AM CST 6:12 PM CST
Astronomical Twilight 5:31 AM CST 6:43 PM CST
Moon 5:39 AM CST (1/29) 4:11 PM CST (1/29)
Length of Visible Light 11h 05m
Length of Day
10h 08m
Waning Crescent, 2% of the Moon is Illuminated
Jan 29
Waning Crescent
Jan 30
New
Feb 6
First Quarter
Feb 14
Full
Feb 22
Last Quarter

Hourly Weather History & Observations

Time (CST) Temp. Windchill Dew Point Humidity Pressure Visibility Wind Dir Wind Speed Gust Speed Precip Events Conditions
12:15 AM 6.4 °F -2.4 °F -4.0 °F 62% 30.36 in 10.0 mi South 4.6 mph - N/A   Clear
12:35 AM 6.6 °F -0.3 °F -4.0 °F 62% 30.36 in 10.0 mi SSW 3.5 mph - N/A   Clear
12:55 AM 6.4 °F -0.5 °F -4.0 °F 62% 30.36 in 10.0 mi SSW 3.5 mph - N/A   Clear
1:15 AM 6.4 °F -0.5 °F -3.8 °F 63% 30.35 in 10.0 mi SW 3.5 mph - N/A   Clear
1:35 AM 6.8 °F - -4.0 °F 61% 30.35 in 10.0 mi Calm Calm - N/A   Clear
1:55 AM 7.3 °F 0.5 °F -4.2 °F 59% 30.35 in 10.0 mi South 3.5 mph - N/A   Clear
2:15 AM 7.2 °F 0.3 °F -4.5 °F 59% 30.34 in 10.0 mi South 3.5 mph - N/A   Clear
2:35 AM 6.8 °F -0.1 °F -4.2 °F 61% 30.34 in 10.0 mi South 3.5 mph - N/A   Clear
2:55 AM 6.6 °F -2.2 °F -4.0 °F 62% 30.34 in 10.0 mi SSW 4.6 mph - N/A   Clear
3:15 AM 7.0 °F -3.3 °F -4.0 °F 61% 30.34 in 10.0 mi SSW 5.8 mph - N/A   Clear
3:35 AM 7.3 °F 0.5 °F -4.4 °F 59% 30.33 in 10.0 mi South 3.5 mph - N/A   Clear
3:55 AM 7.3 °F -1.3 °F -4.5 °F 58% 30.33 in 10.0 mi SSW 4.6 mph - N/A   Clear
4:15 AM 7.7 °F -2.4 °F -4.0 °F 59% 30.33 in 10.0 mi SSW 5.8 mph - N/A   Clear
4:35 AM 7.7 °F -2.4 °F -4.0 °F 59% 30.32 in 10.0 mi SSW 5.8 mph - N/A   Clear
4:55 AM 8.1 °F -0.5 °F -4.2 °F 58% 30.33 in 10.0 mi SSW 4.6 mph - N/A   Clear
5:15 AM 8.1 °F -2.0 °F -4.0 °F 58% 30.32 in 10.0 mi SSW 5.8 mph - N/A   Clear
5:35 AM 8.4 °F -2.8 °F -4.0 °F 57% 30.32 in 10.0 mi SW 6.9 mph - N/A   Clear
5:55 AM 8.4 °F -2.8 °F -4.0 °F 57% 30.32 in 10.0 mi SSW 6.9 mph - N/A   Clear
6:15 AM 8.2 °F -1.8 °F -4.0 °F 58% 30.33 in 10.0 mi SSW 5.8 mph - N/A   Clear
6:35 AM 8.2 °F -1.8 °F -4.0 °F 58% 30.33 in 10.0 mi SSW 5.8 mph - N/A   Clear
6:55 AM 8.1 °F -2.0 °F -3.8 °F 58% 30.33 in 10.0 mi SSW 5.8 mph - N/A   Clear
7:15 AM 8.1 °F -2.0 °F -3.6 °F 59% 30.34 in 10.0 mi SSW 5.8 mph - N/A   Clear
7:35 AM 8.8 °F -1.1 °F -2.7 °F 60% 30.34 in 10.0 mi SSW 5.8 mph - N/A   Clear
7:55 AM 10.4 °F -0.4 °F -2.2 °F 57% 30.34 in 10.0 mi SW 6.9 mph - N/A   Clear
8:15 AM 11.8 °F 0.3 °F -2.2 °F 53% 30.34 in 10.0 mi SW 8.1 mph - N/A   Clear
8:35 AM 13.6 °F 2.5 °F -0.9 °F 52% 30.35 in 10.0 mi SW 8.1 mph - N/A   Clear
8:55 AM 15.1 °F 3.3 °F -0.6 °F 50% 30.35 in 10.0 mi SW 9.2 mph - N/A   Clear
9:15 AM 16.7 °F 3.8 °F 0.3 °F 49% 30.35 in 10.0 mi SW 11.5 mph - N/A   Clear
9:35 AM 18.3 °F 5.9 °F 0.3 °F 45% 30.35 in 10.0 mi WSW 11.5 mph - N/A   Clear
9:55 AM 19.8 °F 7.7 °F 0.9 °F 44% 30.35 in 10.0 mi SW 11.5 mph - N/A   Clear
10:15 AM 21.9 °F 9.8 °F 0.9 °F 40% 30.35 in 10.0 mi SW 12.7 mph - N/A   Clear
10:35 AM 23.2 °F 12.6 °F 0.9 °F 38% 30.35 in 10.0 mi SW 10.4 mph - N/A   Clear
10:55 AM 24.4 °F 14.2 °F 0.7 °F 36% 30.34 in 10.0 mi SW 10.4 mph - N/A   Clear
11:15 AM 26.1 °F 17.6 °F 0.1 °F 33% 30.33 in 10.0 mi SW 8.1 mph - N/A   Clear
11:35 AM 26.1 °F 17.6 °F -0.4 °F 32% 30.32 in 10.0 mi WSW 8.1 mph 17.3 mph N/A   Clear
11:55 AM 27.3 °F 16.1 °F -0.2 °F 31% 30.31 in - WSW 13.8 mph 19.6 mph N/A   Clear
12:15 PM 28.2 °F 16.8 °F -0.6 °F 29% 30.30 in - SW 15.0 mph 18.4 mph N/A   Clear
12:35 PM 28.4 °F 16.6 °F -0.4 °F 29% 30.30 in - SW 16.1 mph 19.6 mph N/A   Clear
12:55 PM 28.2 °F 18.3 °F -0.8 °F 29% 30.29 in - WSW 11.5 mph 15.0 mph N/A   Clear
1:15 PM 28.9 °F 18.2 °F -0.6 °F 28% 30.28 in - SW 13.8 mph 20.7 mph N/A   Clear
1:35 PM 29.3 °F 18.6 °F -0.8 °F 28% 30.28 in - SSW 13.8 mph 19.6 mph N/A   Clear
1:55 PM 29.8 °F 18.4 °F -1.3 °F 26% 30.28 in - SW 16.1 mph 21.9 mph N/A   Clear
2:15 PM 29.8 °F 19.3 °F -0.9 °F 27% 30.27 in - SW 13.8 mph 24.2 mph N/A   Clear
2:35 PM 30.4 °F 19.5 °F -0.9 °F 26% 30.27 in - SW 15.0 mph 21.9 mph N/A   Clear
2:55 PM 30.0 °F 18.3 °F -1.5 °F 26% 30.26 in - SW 17.3 mph 24.2 mph N/A   Clear
3:15 PM 30.2 °F 19.8 °F -1.1 °F 26% 30.26 in - SW 13.8 mph 18.4 mph N/A   Clear
3:35 PM 29.8 °F 20.3 °F -1.7 °F 26% 30.25 in - South 11.5 mph 20.7 mph N/A   Clear
3:55 PM 29.8 °F 19.8 °F -1.3 °F 26% 30.25 in - South 12.7 mph 19.6 mph N/A   Clear
4:15 PM 29.1 °F 18.4 °F -0.8 °F 28% 30.25 in - SSW 13.8 mph 18.4 mph N/A   Clear
4:35 PM 28.8 °F 17.9 °F -1.3 °F 27% 30.25 in - SSW 13.8 mph - N/A   Clear
4:55 PM 27.7 °F 18.8 °F -1.1 °F 29% 30.25 in - SSW 9.2 mph 17.3 mph N/A   Clear
5:15 PM 27.0 °F 17.3 °F -0.9 °F 30% 30.24 in - SSW 10.4 mph - N/A   Clear
5:35 PM 26.1 °F 16.8 °F -0.6 °F 32% 30.23 in 10.0 mi South 9.2 mph - N/A   Clear
5:55 PM 25.9 °F 18.2 °F -0.2 °F 32% 30.23 in 10.0 mi South 6.9 mph - N/A   Clear
6:15 PM 25.3 °F 18.5 °F 0.3 °F 34% 30.24 in 10.0 mi South 5.8 mph - N/A   Clear
6:35 PM 25.2 °F 17.3 °F 1.0 °F 35% 30.24 in 10.0 mi South 6.9 mph - N/A   Clear
6:55 PM 24.4 °F 15.6 °F 1.6 °F 37% 30.23 in 10.0 mi SSE 8.1 mph - N/A   Clear
7:15 PM 24.3 °F 14.6 °F 1.9 °F 38% 30.23 in 10.0 mi South 9.2 mph - N/A   Clear
7:35 PM 23.7 °F 13.3 °F 2.3 °F 40% 30.22 in 10.0 mi SSE 10.4 mph - N/A   Clear
7:55 PM 23.2 °F 13.3 °F 2.5 °F 41% 30.21 in 10.0 mi South 9.2 mph - N/A   Clear
8:15 PM 23.2 °F 12.0 °F 2.5 °F 41% 30.20 in 10.0 mi SSE 11.5 mph 16.1 mph N/A   Clear
8:35 PM 23.4 °F 13.5 °F 2.3 °F 40% 30.21 in 10.0 mi SSE 9.2 mph 16.1 mph N/A   Clear
8:55 PM 22.6 °F 14.3 °F 2.8 °F 43% 30.21 in 10.0 mi South 6.9 mph - N/A   Clear
9:15 PM 22.8 °F 11.5 °F 2.3 °F 41% 30.21 in 10.0 mi SSE 11.5 mph - N/A   Clear
9:35 PM 22.8 °F 12.9 °F 2.8 °F 42% 30.20 in 10.0 mi SSE 9.2 mph - N/A   Clear
9:55 PM 22.3 °F 10.8 °F 3.0 °F 44% 30.19 in 10.0 mi South 11.5 mph 17.3 mph N/A   Clear
10:15 PM 22.1 °F 12.0 °F 3.2 °F 44% 30.19 in 10.0 mi South 9.2 mph 17.3 mph N/A   Clear
10:35 PM 22.5 °F 11.7 °F 3.2 °F 44% 30.19 in 10.0 mi South 10.4 mph - N/A   Clear
10:55 PM 22.8 °F 12.9 °F 3.0 °F 43% 30.18 in 10.0 mi South 9.2 mph - N/A   Clear
11:15 PM 23.0 °F 11.1 °F 2.7 °F 42% 30.17 in 10.0 mi South 12.7 mph 17.3 mph N/A   Clear
11:35 PM 22.6 °F 11.3 °F 2.7 °F 42% 30.17 in 10.0 mi South 11.5 mph 18.4 mph N/A   Clear
11:55 PM 22.8 °F 11.5 °F 2.7 °F 42% 30.16 in 10.0 mi South 11.5 mph 19.6 mph N/A   Clear